| time (UTC) | temp F | wind direction | speed MPH | gust MPH | rain 1hr in | rain 24hr in | rain mn in | humidity % | barometer mb |
| 20260902065038 | 78 | 18 | 6.0 | 9.0 | 0.00 | 0.00 | 0.00 | 58 | 1016.0 |
| 20260902064020 | 78 | 15 | 5.0 | 8.0 | 0.00 | 0.00 | 0.00 | 56 | 1015.9 |
| 20260902063026 | 77 | 29 | 3.0 | 7.0 | 0.00 | 0.00 | 0.00 | 58 | 1015.9 |
| 20260902062018 | 78 | 49 | 3.0 | 4.0 | 0.00 | 0.00 | 0.00 | 55 | 1016.0 |
| 20260902061027 | 78 | 53 | 2.0 | 4.0 | 0.00 | 0.00 | 0.00 | 56 | 1016.0 |
| 20260902060017 | 78 | 28 | 3.0 | 6.0 | 0.00 | 0.00 | 0.00 | 54 | 1016.1 |
| 20260902055020 | 78 | 22 | 3.0 | 6.0 | 0.00 | 0.00 | 0.00 | 56 | 1016.1 |
| 20260902054024 | 77 | 17 | 4.0 | 8.0 | 0.00 | 0.00 | 0.00 | 56 | 1015.9 |
| 20260902053022 | 77 | 1 | 4.0 | 9.0 | 0.00 | 0.00 | 0.00 | 58 | 1016.0 |
| 20260902052022 | 75 | 5 | 4.0 | 8.0 | 0.00 | 0.00 | 0.00 | 63 | 1015.9 |
| 20260902051024 | 75 | 9 | 2.0 | 4.0 | 0.00 | 0.00 | 0.00 | 68 | 1016.0 |
| 20260902050021 | 75 | 93 | 1.0 | 2.0 | 0.00 | 0.00 | 0.00 | 69 | 1015.9 |
| 20260902045042 | 74 | 66 | 0.0 | 1.0 | 0.00 | 0.00 | 0.00 | 71 | 1015.9 |
| 20260902044023 | 74 | 0.0 | 0.0 | 0.00 | 0.00 | 0.00 | 72 | 1015.9 | |
| 20260902043022 | 73 | 0.0 | 0.0 | 0.00 | 0.00 | 0.00 | 72 | 1015.8 | |
| 20260902042025 | 73 | 0.0 | 0.0 | 0.00 | 0.00 | 0.00 | 72 | 1015.8 | |
| 20260902041042 | 74 | 0.0 | 0.0 | 0.00 | 0.00 | 0.00 | 71 | 1015.7 | |
| 20260902040023 | 74 | 63 | 0.0 | 2.0 | 0.00 | 0.00 | 0.00 | 70 | 1015.5 |
| 20260902035043 | 75 | 31 | 0.0 | 1.0 | 0.00 | 0.00 | 0.00 | 69 | 1015.5 |
| 20260902034023 | 75 | 347 | 0.0 | 2.0 | 0.00 | 0.00 | 0.00 | 65 | 1015.2 |
| 20260902033016 | 75 | 352 | 1.0 | 3.0 | 0.00 | 0.00 | 0.00 | 60 | 1015.1 |
| 20260902032017 | 75 | 357 | 3.0 | 7.0 | 0.00 | 0.00 | 0.00 | 59 | 1015.0 |
| 20260902031041 | 76 | 343 | 2.0 | 4.0 | 0.00 | 0.00 | 0.00 | 57 | 1015.1 |
| 20260902030017 | 76 | 339 | 2.0 | 6.0 | 0.00 | 0.00 | 0.00 | 57 | 1014.9 |
| 20260902025041 | 76 | 342 | 2.0 | 7.0 | 0.00 | 0.00 | 0.00 | 56 | 1014.9 |
| 20260902024017 | 76 | 346 | 2.0 | 4.0 | 0.00 | 0.00 | 0.00 | 55 | 1014.9 |
| 20260902023024 | 76 | 335 | 2.0 | 6.0 | 0.00 | 0.00 | 0.00 | 56 | 1014.9 |
| 20260902022021 | 76 | 3 | 2.0 | 4.0 | 0.00 | 0.00 | 0.00 | 54 | 1014.9 |
| 20260902021025 | 76 | 351 | 2.0 | 6.0 | 0.00 | 0.00 | 0.00 | 53 | 1014.9 |
| 20260902020022 | 77 | 342 | 3.0 | 7.0 | 0.00 | 0.00 | 0.00 | 52 | 1014.8 |
| 20260902015036 | 77 | 351 | 3.0 | 6.0 | 0.00 | 0.00 | 0.00 | 52 | 1014.8 |
| 20260902014019 | 77 | 354 | 3.0 | 7.0 | 0.00 | 0.00 | 0.00 | 50 | 1014.9 |
| 20260902013017 | 77 | 339 | 4.0 | 7.0 | 0.00 | 0.00 | 0.00 | 50 | 1014.8 |
| 20260902012020 | 77 | 347 | 2.0 | 6.0 | 0.00 | 0.00 | 0.00 | 50 | 1014.7 |
| 20260902011024 | 77 | 334 | 3.0 | 6.0 | 0.00 | 0.00 | 0.00 | 50 | 1014.8 |
| 20260902010020 | 77 | 341 | 4.0 | 9.0 | 0.00 | 0.00 | 0.00 | 50 | 1014.7 |
| 20260902005026 | 77 | 345 | 3.0 | 7.0 | 0.00 | 0.00 | 0.00 | 50 | 1014.6 |
| 20260902004024 | 77 | 348 | 3.0 | 7.0 | 0.00 | 0.00 | 0.00 | 50 | 1014.8 |
| 20260902003021 | 77 | 354 | 3.0 | 7.0 | 0.00 | 0.00 | 0.00 | 51 | 1014.7 |
| 20260902002019 | 78 | 349 | 2.0 | 4.0 | 0.00 | 0.00 | 0.00 | 50 | 1014.6 |
| 20260902001037 | 78 | 345 | 3.0 | 8.0 | 0.00 | 0.00 | 0.00 | 49 | 1014.6 |
| 20260902000048 | 79 | 6 | 3.0 | 7.0 | 0.00 | 0.00 | 0.00 | 47 | 1014.7 |
| 20260901235040 | 79 | 1 | 2.0 | 6.0 | 0.00 | 0.00 | 0.00 | 44 | 1014.6 |
| 20260901234015 | 80 | 350 | 3.0 | 7.0 | 0.00 | 0.00 | 0.00 | 43 | 1014.5 |
| 20260901233019 | 80 | 337 | 3.0 | 8.0 | 0.00 | 0.00 | 0.00 | 41 | 1014.6 |
| 20260901232020 | 80 | 357 | 3.0 | 7.0 | 0.00 | 0.00 | 0.00 | 42 | 1014.4 |
| 20260901231044 | 79 | 350 | 3.0 | 10.0 | 0.00 | 0.00 | 0.00 | 45 | 1014.5 |
| 20260901230025 | 79 | 357 | 3.0 | 7.0 | 0.00 | 0.00 | 0.00 | 44 | 1014.6 |
| 20260901225026 | 79 | 357 | 3.0 | 7.0 | 0.00 | 0.00 | 0.00 | 48 | 1014.6 |
| 20260901224025 | 79 | 15 | 3.0 | 7.0 | 0.00 | 0.00 | 0.00 | 45 | 1014.7 |
| 20260901223023 | 79 | 359 | 3.0 | 7.0 | 0.00 | 0.00 | 0.00 | 45 | 1014.6 |
| 20260901222025 | 79 | 0 | 4.0 | 8.0 | 0.00 | 0.00 | 0.00 | 47 | 1014.6 |
| 20260901221018 | 79 | 4 | 3.0 | 7.0 | 0.00 | 0.00 | 0.00 | 53 | 1014.8 |
| 20260901220022 | 80 | 13 | 4.0 | 8.0 | 0.00 | 0.00 | 0.00 | 51 | 1014.7 |
| 20260901215023 | 80 | 349 | 3.0 | 7.0 | 0.00 | 0.00 | 0.00 | 49 | 1014.7 |
| 20260901214019 | 80 | 15 | 2.0 | 7.0 | 0.00 | 0.00 | 0.00 | 47 | 1014.7 |
| 20260901213021 | 80 | 8 | 5.0 | 9.0 | 0.00 | 0.00 | 0.00 | 47 | 1014.7 |
| 20260901212024 | 80 | 360 | 4.0 | 8.0 | 0.00 | 0.00 | 0.00 | 48 | 1014.8 |
| 20260901211016 | 80 | 31 | 2.0 | 6.0 | 0.00 | 0.00 | 0.00 | 50 | 1014.8 |
| 20260901210022 | 80 | 39 | 2.0 | 6.0 | 0.00 | 0.00 | 0.00 | 52 | 1014.8 |
| 20260901205045 | 80 | 64 | 2.0 | 4.0 | 0.00 | 0.00 | 0.00 | 50 | 1014.8 |
| 20260901204026 | 82 | 48 | 3.0 | 8.0 | 0.00 | 0.00 | 0.00 | 48 | 1014.8 |
| 20260901203036 | 82 | 359 | 4.0 | 10.0 | 0.00 | 0.00 | 0.00 | 42 | 1014.6 |
| 20260901202039 | 81 | 10 | 3.0 | 7.0 | 0.00 | 0.00 | 0.00 | 45 | 1014.7 |
| 20260901201017 | 82 | 356 | 3.0 | 7.0 | 0.00 | 0.00 | 0.00 | 45 | 1014.6 |
| 20260901200038 | 82 | 354 | 3.0 | 9.0 | 0.00 | 0.00 | 0.00 | 47 | 1014.5 |
| 20260901195021 | 83 | 359 | 4.0 | 7.0 | 0.00 | 0.00 | 0.00 | 42 | 1014.5 |
| 20260901194023 | 83 | 341 | 5.0 | 10.0 | 0.00 | 0.00 | 0.00 | 43 | 1014.4 |
| 20260901193021 | 83 | 5 | 5.0 | 11.0 | 0.00 | 0.00 | 0.00 | 41 | 1014.4 |
| 20260901192024 | 83 | 5 | 4.0 | 9.0 | 0.00 | 0.00 | 0.00 | 41 | 1014.6 |
| 20260901191025 | 83 | 2 | 3.0 | 9.0 | 0.00 | 0.00 | 0.00 | 48 | 1014.5 |
| 20260901190023 | 83 | 353 | 3.0 | 10.0 | 0.00 | 0.00 | 0.00 | 44 | 1014.4 |
| 20260901185022 | 84 | 348 | 3.0 | 6.0 | 0.00 | 0.00 | 0.00 | 42 | 1014.3 |
| 20260901184020 | 84 | 350 | 3.0 | 7.0 | 0.00 | 0.00 | 0.00 | 41 | 1014.3 |
| 20260901183023 | 84 | 348 | 4.0 | 8.0 | 0.00 | 0.00 | 0.00 | 40 | 1014.1 |
| 20260901182040 | 85 | 347 | 4.0 | 8.0 | 0.00 | 0.00 | 0.00 | 39 | 1014.0 |
| 20260901181023 | 85 | 2 | 3.0 | 8.0 | 0.00 | 0.00 | 0.00 | 40 | 1013.8 |
| 20260901180021 | 85 | 349 | 3.0 | 7.0 | 0.00 | 0.00 | 0.00 | 40 | 1013.8 |
| 20260901175036 | 85 | 350 | 3.0 | 7.0 | 0.00 | 0.00 | 0.00 | 42 | 1013.6 |
| 20260901174025 | 85 | 9 | 3.0 | 7.0 | 0.00 | 0.00 | 0.00 | 44 | 1013.4 |
| 20260901173024 | 85 | 347 | 3.0 | 6.0 | 0.00 | 0.00 | 0.00 | 45 | 1013.2 |
| 20260901172018 | 85 | 345 | 3.0 | 8.0 | 0.00 | 0.00 | 0.00 | 46 | 1013.2 |
| 20260901171019 | 85 | 354 | 3.0 | 8.0 | 0.00 | 0.00 | 0.00 | 47 | 1013.0 |
| 20260901170023 | 85 | 356 | 4.0 | 9.0 | 0.00 | 0.00 | 0.00 | 46 | 1012.9 |
| 20260901165019 | 85 | 344 | 4.0 | 7.0 | 0.00 | 0.00 | 0.00 | 47 | 1012.8 |
| 20260901164018 | 86 | 1 | 3.0 | 6.0 | 0.00 | 0.00 | 0.00 | 49 | 1012.9 |
| 20260901163019 | 87 | 358 | 3.0 | 7.0 | 0.00 | 0.00 | 0.00 | 47 | 1012.6 |
| 20260901162017 | 88 | 0 | 4.0 | 8.0 | 0.00 | 0.00 | 0.00 | 44 | 1012.6 |
| 20260901161023 | 89 | 11 | 4.0 | 8.0 | 0.00 | 0.00 | 0.00 | 44 | 1012.5 |
| 20260901160041 | 89 | 344 | 4.0 | 8.0 | 0.00 | 0.00 | 0.00 | 40 | 1012.5 |
| 20260901155020 | 90 | 338 | 5.0 | 9.0 | 0.00 | 0.00 | 0.00 | 41 | 1012.4 |
| 20260901154017 | 89 | 358 | 5.0 | 11.0 | 0.00 | 0.00 | 0.00 | 40 | 1012.5 |
| 20260901153026 | 89 | 3 | 4.0 | 9.0 | 0.00 | 0.00 | 0.00 | 42 | 1012.6 |
| 20260901152024 | 89 | 359 | 5.0 | 10.0 | 0.00 | 0.00 | 0.00 | 41 | 1012.6 |
| 20260901151021 | 89 | 350 | 4.0 | 9.0 | 0.00 | 0.00 | 0.00 | 42 | 1012.6 |
| 20260901150023 | 89 | 354 | 4.0 | 8.0 | 0.00 | 0.00 | 0.00 | 43 | 1012.5 |
| 20260901145019 | 90 | 6 | 5.0 | 11.0 | 0.00 | 0.00 | 0.00 | 39 | 1012.4 |
| 20260901144025 | 91 | 359 | 5.0 | 9.0 | 0.00 | 0.00 | 0.00 | 35 | 1012.5 |
| 20260901143041 | 91 | 344 | 5.0 | 9.0 | 0.00 | 0.00 | 0.00 | 34 | 1012.6 |
| 20260901142024 | 91 | 346 | 4.0 | 8.0 | 0.00 | 0.00 | 0.00 | 35 | 1012.6 |
| 20260901141021 | 92 | 349 | 5.0 | 9.0 | 0.00 | 0.00 | 0.00 | 33 | 1012.7 |
| 20260901140024 | 92 | 348 | 5.0 | 9.0 | 0.00 | 0.00 | 0.00 | 32 | 1012.8 |
| 20260901135026 | 91 | 347 | 5.0 | 9.0 | 0.00 | 0.00 | 0.00 | 32 | 1012.8 |
| 20260901134024 | 91 | 356 | 5.0 | 11.0 | 0.00 | 0.00 | 0.00 | 34 | 1012.8 |
| 20260901133025 | 91 | 356 | 5.0 | 9.0 | 0.00 | 0.00 | 0.00 | 31 | 1012.8 |
| 20260901132022 | 90 | 3 | 4.0 | 9.0 | 0.00 | 0.00 | 0.00 | 36 | 1012.8 |
| 20260901131017 | 90 | 2 | 3.0 | 7.0 | 0.00 | 0.00 | 0.00 | 38 | 1012.9 |
| 20260901130023 | 90 | 1 | 5.0 | 10.0 | 0.00 | 0.00 | 0.00 | 37 | 1012.9 |
| 20260901125025 | 91 | 354 | 4.0 | 9.0 | 0.00 | 0.00 | 0.00 | 35 | 1013.0 |
| 20260901124019 | 91 | 7 | 5.0 | 9.0 | 0.00 | 0.00 | 0.00 | 32 | 1013.1 |
| 20260901123039 | 91 | 340 | 5.0 | 11.0 | 0.00 | 0.00 | 0.00 | 31 | 1013.2 |
| 20260901122021 | 91 | 351 | 4.0 | 8.0 | 0.00 | 0.00 | 0.00 | 35 | 1013.3 |
| 20260901121024 | 91 | 358 | 4.0 | 9.0 | 0.00 | 0.00 | 0.00 | 37 | 1013.3 |
| 20260901120022 | 90 | 355 | 5.0 | 11.0 | 0.00 | 0.00 | 0.00 | 36 | 1013.4 |
| 20260901115024 | 90 | 356 | 6.0 | 11.0 | 0.00 | 0.00 | 0.00 | 36 | 1013.6 |
| 20260901114045 | 89 | 0 | 6.0 | 10.0 | 0.00 | 0.00 | 0.00 | 38 | 1013.6 |
| 20260901113017 | 88 | 1 | 6.0 | 13.0 | 0.00 | 0.00 | 0.00 | 42 | 1013.8 |
| 20260901112041 | 87 | 357 | 5.0 | 11.0 | 0.00 | 0.00 | 0.00 | 45 | 1013.9 |
| 20260901111020 | 87 | 358 | 5.0 | 10.0 | 0.00 | 0.00 | 0.00 | 45 | 1014.0 |
| 20260901110019 | 86 | 5 | 5.0 | 9.0 | 0.00 | 0.00 | 0.00 | 48 | 1014.0 |
| 20260901105024 | 86 | 12 | 5.0 | 10.0 | 0.00 | 0.00 | 0.00 | 49 | 1014.1 |
| 20260901104037 | 85 | 12 | 5.0 | 9.0 | 0.00 | 0.00 | 0.00 | 50 | 1014.2 |
| 20260901103023 | 84 | 13 | 6.0 | 11.0 | 0.00 | 0.00 | 0.00 | 50 | 1014.4 |
| 20260901102038 | 84 | 12 | 5.0 | 10.0 | 0.00 | 0.00 | 0.00 | 51 | 1014.6 |
| 20260901101025 | 84 | 7 | 6.0 | 10.0 | 0.00 | 0.00 | 0.00 | 49 | 1014.6 |
| 20260901100024 | 84 | 15 | 5.0 | 11.0 | 0.00 | 0.00 | 0.00 | 49 | 1014.6 |
| 20260901095024 | 84 | 347 | 4.0 | 9.0 | 0.00 | 0.00 | 0.00 | 47 | 1014.7 |
| 20260901094024 | 84 | 3 | 5.0 | 11.0 | 0.00 | 0.00 | 0.00 | 47 | 1014.7 |
| 20260901093023 | 83 | 344 | 5.0 | 10.0 | 0.00 | 0.00 | 0.00 | 48 | 1014.8 |
| 20260901092016 | 83 | 357 | 5.0 | 11.0 | 0.00 | 0.00 | 0.00 | 48 | 1015.0 |
| 20260901091019 | 83 | 353 | 6.0 | 14.0 | 0.00 | 0.00 | 0.00 | 49 | 1015.1 |
| 20260901090021 | 82 | 350 | 5.0 | 10.0 | 0.00 | 0.00 | 0.00 | 51 | 1015.1 |
| 20260901085022 | 82 | 5 | 6.0 | 15.0 | 0.00 | 0.00 | 0.00 | 53 | 1015.1 |
| 20260901084019 | 82 | 7 | 4.0 | 9.0 | 0.00 | 0.00 | 0.00 | 53 | 1015.1 |
| 20260901083024 | 80 | 359 | 4.0 | 9.0 | 0.00 | 0.00 | 0.00 | 57 | 1015.3 |
| 20260901082021 | 80 | 349 | 4.0 | 11.0 | 0.00 | 0.00 | 0.00 | 59 | 1015.4 |
| 20260901081024 | 79 | 3 | 4.0 | 8.0 | 0.00 | 0.00 | 0.00 | 61 | 1015.4 |
| 20260901080038 | 78 | 10 | 5.0 | 11.0 | 0.00 | 0.00 | 0.00 | 63 | 1015.5 |
| 20260901075023 | 78 | 21 | 5.0 | 10.0 | 0.00 | 0.00 | 0.00 | 63 | 1015.4 |
| 20260901074018 | 78 | 18 | 5.0 | 13.0 | 0.00 | 0.00 | 0.00 | 65 | 1015.5 |
| 20260901073021 | 77 | 17 | 5.0 | 10.0 | 0.00 | 0.00 | 0.00 | 66 | 1015.3 |
| 20260901072023 | 77 | 21 | 5.0 | 10.0 | 0.00 | 0.00 | 0.00 | 66 | 1015.2 |
| 20260901071025 | 77 | 5 | 5.0 | 9.0 | 0.00 | 0.00 | 0.00 | 67 | 1015.1 |
| 20260901070024 | 77 | 18 | 6.0 | 10.0 | 0.00 | 0.00 | 0.00 | 68 | 1015.1 |